Location: New Mesquite
(33.1168°N, 96.4336°W)
Time: 20:08:17
(UTC+00:00)

CZ-2C R/B - Pass Details

Date: 01 July 2022
Orbit: 784 x 871 km, 98.2° (Epoch: 07 August)

Event Time Altitude Azimuth Distance (km) Brightness Sun altitude
Rises 10:37:39 0° 156° (SSE) 3,383 5.7 -8.5°
Reaches altitude 10° 10:40:01 10° 152° (SSE) 2,464 5.1 -8.1°
Maximum altitude 10:45:24 59° 74° (ENE) 984 3.5 -7.1°
Drops below altitude 10° 10:50:54 10° 356° (N) 2,515 5.6 -6.2°
Sets 10:53:20 0° 353° (N) 3,461 6.3 -5.7°
